Zurück zum Katalog

STARLINK-37705

AktivKommunikationVLEO
NORAD 100273·PAYLOAD·🇺🇸 United States

Gestartet Aug 11, 2026 von Cape Canaveral Space Force Station

Loading…

Nächste Überflüge (nächste 24 Stunden)

TLE

AlterndSource: Space-Track

Epoche: Sep 11, 2026, 14:19 UTC

1 A0273U 26183B   26254.59653454 -.00916529  00000-0 -69941-2 0  9997
2 A0273  53.1574 301.3956 0000560 106.2439 253.8643 15.74112189  4905

Verfolge STARLINK-37705 in Echtzeit mit AllMySat

Download on the App Store